Weather History for Manistique, MI

Change the Weather History Date:

Saturday, October 19, 2013

  Actual Average Record
Temperature  
Mean Temperature 43 °F -  
Max Temperature 52 °F 52 °F 74 °F (1953)
Min Temperature 34 °F 34 °F 23 °F (1989)
Degree Days  
Heating Degree Days 22    
Moisture  
Dew Point 37 °F    
Average Humidity 82    
Maximum Humidity 98    
Minimum Humidity 48    
Precipitation  
Precipitation 0.00 in - - ()
Sea Level Pressure  
Sea Level Pressure 29.72 in    
Wind  
Wind Speed 5 mph (WNW)    
Max Wind Speed 16 mph    
Max Gust Speed 22 mph    
Visibility 10 miles    
Events Rain    
Averages and records for this station are not official NWS values.
T = Trace of Precipitation, MM = Missing Value Source: NWS Daily Summary

Daily Weather History Graph

Daily Weather History Graph

Search for Another Location

Airport:

Trip Planner

Search our weather history database for the weather conditions in past years. The results will help you decide how hot, cold, wet, or windy it might be!

Date:

Astronomy

Oct. 19, 2013 Rise Set
Actual Time 8:07 AM EDT 6:51 PM EDT
Civil Twilight 7:36 AM EDT 7:21 PM EDT
Nautical Twilight 7:02 AM EDT 7:56 PM EDT
Astronomical Twilight 6:27 AM EDT 8:30 PM EDT
Moon 7:14 PM EDT (10/19) 8:47 AM EDT (10/19)
Length of Visible Light 11h 44m
Length of Day
10h 43m
Waxing Gibbous, 99% of the Moon is Illuminated
Oct 19
Waxing Gibbous
Oct 26
Last Quarter
Nov 3
New
Nov 10
First Quarter
Nov 17
Full

Hourly Weather History & Observations

Time (EDT) Temp. Windchill Dew Point Humidity Pressure Visibility Wind Dir Wind Speed Gust Speed Precip Events Conditions
12:19 AM 41.0 °F 37.1 °F 40.1 °F 97% 29.81 in 10.0 mi WNW 5.8 mph - N/A   Overcast
12:38 AM 41.2 °F 38.2 °F 40.1 °F 96% 29.81 in 10.0 mi WNW 4.6 mph - N/A   Overcast
12:59 AM 41.4 °F 37.6 °F 40.5 °F 97% 29.81 in 10.0 mi WNW 5.8 mph - N/A   Overcast
1:18 AM 41.4 °F 37.6 °F 40.5 °F 97% 29.81 in 10.0 mi WNW 5.8 mph - N/A   Overcast
1:39 AM 41.0 °F 36.4 °F 40.1 °F 97% 29.80 in 10.0 mi WNW 6.9 mph - N/A   Overcast
1:59 AM 40.6 °F 36.7 °F 39.7 °F 97% 29.80 in 10.0 mi WNW 5.8 mph - N/A   Mostly Cloudy
2:18 AM 40.6 °F 36.0 °F 39.7 °F 97% 29.80 in 10.0 mi WNW 6.9 mph - N/A   Overcast
2:39 AM 40.6 °F 36.0 °F 39.7 °F 97% 29.79 in 10.0 mi WNW 6.9 mph - N/A   Overcast
2:59 AM 40.8 °F 36.9 °F 39.7 °F 96% 29.79 in 10.0 mi WNW 5.8 mph - N/A Rain Light Rain
3:18 AM 40.6 °F 37.5 °F 39.7 °F 97% 29.79 in 10.0 mi WNW 4.6 mph - N/A Rain Light Rain
3:39 AM 40.5 °F 36.5 °F 39.7 °F 97% 29.79 in 10.0 mi WNW 5.8 mph - N/A Rain Light Rain
3:59 AM 40.3 °F 37.1 °F 39.4 °F 97% 29.78 in 10.0 mi WNW 4.6 mph - N/A   Overcast
4:18 AM 40.1 °F 36.1 °F 39.4 °F 97% 29.78 in 10.0 mi WNW 5.8 mph - N/A   Overcast
4:39 AM 40.1 °F 35.3 °F 39.2 °F 97% 29.77 in 10.0 mi WNW 6.9 mph - N/A   Overcast
4:58 AM 40.1 °F 35.3 °F 39.2 °F 97% 29.77 in 10.0 mi West 6.9 mph - N/A   Overcast
5:19 AM 40.3 °F 35.5 °F 39.6 °F 97% 29.76 in 10.0 mi West 6.9 mph - N/A Rain Light Rain
5:39 AM 40.1 °F 36.1 °F 39.4 °F 97% 29.76 in 10.0 mi West 5.8 mph - N/A Rain Light Rain
5:58 AM 40.1 °F 36.9 °F 39.4 °F 97% 29.76 in 10.0 mi WNW 4.6 mph - N/A   Overcast
6:19 AM 40.1 °F 36.9 °F 39.2 °F 97% 29.75 in 10.0 mi WNW 4.6 mph - N/A   Overcast
6:39 AM 39.7 °F 35.6 °F 38.7 °F 96% 29.75 in 10.0 mi NW 5.8 mph - N/A   Overcast
6:58 AM 38.5 °F 35.0 °F 37.6 °F 97% 29.75 in 10.0 mi NNW 4.6 mph - N/A   Overcast
7:19 AM 38.3 °F 34.8 °F 37.4 °F 97% 29.74 in 10.0 mi NNW 4.6 mph - N/A   Overcast
7:39 AM 38.3 °F 33.9 °F 37.4 °F 97% 29.74 in 10.0 mi NW 5.8 mph - N/A   Mostly Cloudy
7:59 AM 38.3 °F 34.8 °F 37.2 °F 96% 29.74 in 10.0 mi NW 4.6 mph - N/A   Mostly Cloudy
8:19 AM 37.6 °F 34.0 °F 36.5 °F 96% 29.74 in 10.0 mi NW 4.6 mph - N/A   Scattered Clouds
8:38 AM 37.6 °F 33.1 °F 36.7 °F 97% 29.75 in 10.0 mi WNW 5.8 mph - N/A   Scattered Clouds
8:59 AM 37.0 °F 33.3 °F 36.5 °F 98% 29.75 in 10.0 mi WNW 4.6 mph - N/A   Clear
9:59 AM 40.5 °F - 38.8 °F 94% 29.75 in 10.0 mi Calm Calm - N/A   Clear
10:19 AM 42.4 °F - 39.6 °F 90% 29.75 in 10.0 mi Calm Calm - N/A   Clear
10:38 AM 43.3 °F 41.7 °F 38.3 °F 82% 29.75 in 10.0 mi NW 3.5 mph - N/A   Scattered Clouds
10:59 AM 45.0 °F - 37.9 °F 76% 29.74 in 10.0 mi Calm Calm - N/A   Scattered Clouds
11:19 AM 46.0 °F 43.9 °F 38.5 °F 75% 29.74 in 10.0 mi West 4.6 mph - N/A   Clear
11:39 AM 47.8 °F - 38.7 °F 70% 29.73 in 10.0 mi West 5.8 mph - N/A   Clear
11:59 AM 47.3 °F - 37.9 °F 70% 29.73 in 10.0 mi Calm Calm - N/A   Clear
12:18 PM 47.8 °F - 36.1 °F 64% 29.72 in 10.0 mi NNW 3.5 mph - N/A   Clear
12:39 PM 48.2 °F - 35.6 °F 62% 29.72 in 10.0 mi West 4.6 mph - N/A   Scattered Clouds
12:59 PM 49.3 °F - 34.2 °F 56% 29.71 in 10.0 mi NW 6.9 mph - N/A   Scattered Clouds
1:18 PM 50.4 °F - 33.6 °F 53% 29.70 in 10.0 mi NW 5.8 mph - N/A   Clear
1:39 PM 49.5 °F - 33.6 °F 54% 29.70 in 10.0 mi West 5.8 mph - N/A   Scattered Clouds
1:59 PM 51.1 °F - 34.0 °F 52% 29.69 in 10.0 mi NW 5.8 mph - N/A   Mostly Cloudy
2:18 PM 49.6 °F - 34.5 °F 56% 29.68 in 10.0 mi SW 5.8 mph - N/A   Mostly Cloudy
2:39 PM 48.7 °F - 33.3 °F 55% 29.68 in 10.0 mi WSW 3.5 mph - N/A   Clear
2:58 PM 48.2 °F - 34.0 °F 58% 29.67 in 10.0 mi Calm Calm - N/A   Mostly Cloudy
3:19 PM 48.2 °F - 34.2 °F 58% 29.67 in 10.0 mi Calm Calm - N/A Rain Light Rain
3:39 PM 51.3 °F - 32.7 °F 49% 29.66 in 10.0 mi WSW 5.8 mph - N/A   Overcast
3:58 PM 52.5 °F - 33.1 °F 48% 29.66 in 10.0 mi West 4.6 mph - N/A   Overcast
4:19 PM 50.9 °F - 33.3 °F 51% 29.66 in 10.0 mi SSW 6.9 mph - N/A   Overcast
4:39 PM 50.4 °F - 31.3 °F 48% 29.66 in 10.0 mi SSW 9.2 mph - N/A   Scattered Clouds
4:58 PM 50.9 °F - 32.7 °F 50% 29.66 in 10.0 mi SW 11.5 mph - N/A   Clear
5:19 PM 49.3 °F - 35.1 °F 58% 29.66 in 10.0 mi South 6.9 mph - N/A   Clear
5:39 PM 47.7 °F - 34.5 °F 60% 29.66 in 10.0 mi SW 5.8 mph - N/A   Scattered Clouds
5:58 PM 47.3 °F - 34.5 °F 61% 29.67 in 10.0 mi West 6.9 mph - N/A   Mostly Cloudy
6:19 PM 43.0 °F 35.4 °F 35.4 °F 75% 29.68 in 10.0 mi West 16.1 mph 21.9 mph N/A   Overcast
6:39 PM 41.9 °F 35.0 °F 35.6 °F 78% 29.68 in 10.0 mi WNW 12.7 mph 19.6 mph N/A   Scattered Clouds
6:59 PM 41.2 °F 38.2 °F 34.9 °F 78% 29.68 in 10.0 mi WNW 4.6 mph - N/A   Scattered Clouds
7:19 PM 40.8 °F 38.8 °F 34.7 °F 79% 29.68 in 10.0 mi WNW 3.5 mph - N/A   Mostly Cloudy
7:38 PM 40.6 °F - 34.7 °F 79% 29.68 in 10.0 mi Calm Calm - N/A   Mostly Cloudy
7:59 PM 39.9 °F - 34.9 °F 82% 29.68 in 10.0 mi Calm Calm - N/A   Overcast
8:19 PM 37.4 °F - 34.3 °F 89% 29.69 in 10.0 mi Calm Calm - N/A   Mostly Cloudy
8:38 PM 36.0 °F - 34.2 °F 93% 29.69 in 10.0 mi Calm Calm - N/A   Mostly Cloudy
8:59 PM 37.4 °F - 34.5 °F 89% 29.69 in 10.0 mi Calm Calm - N/A   Overcast
9:19 PM 37.6 °F 35.1 °F 35.1 °F 91% 29.69 in 10.0 mi ENE 3.5 mph - N/A   Overcast
9:38 PM 36.5 °F - 34.5 °F 93% 29.69 in 10.0 mi Calm Calm - N/A   Mostly Cloudy
9:59 PM 37.9 °F - 34.9 °F 89% 29.69 in 10.0 mi Calm Calm - N/A   Scattered Clouds
10:19 PM 36.9 °F - 34.0 °F 89% 29.69 in 10.0 mi Calm Calm - N/A   Clear
10:39 PM 35.2 °F - 33.3 °F 92% 29.69 in 10.0 mi Calm Calm - N/A   Scattered Clouds
10:59 PM 34.9 °F - 33.4 °F 94% 29.69 in 10.0 mi Calm Calm - N/A   Overcast
11:18 PM 35.8 °F - 34.7 °F 96% 29.69 in 10.0 mi Calm Calm - N/A   Overcast
11:39 PM 36.0 °F - 35.1 °F 97% 29.69 in 10.0 mi Calm Calm - N/A   Overcast
11:59 PM 36.5 °F - 35.4 °F 96% 29.68 in 10.0 mi Calm Calm - N/A   Overcast